Location: West Cummington
(42.4920°N, 72.9680°W)
Time: 20:33:52
(UTC-04:00)

Cosmos 1703 Rocket - Visible Passes

Search period start: 30 August 2015 00:00
Search period end: 09 September 2015 00:00
Orbit: 606 x 634 km, 82.5° (Epoch: 29 August)

Date Brightness Start Highest point End Pass type
(mag) Time Alt. Az. Time Alt. Az. Time Alt. Az.
30 Aug 5.2 02:56:37 31° NE 02:56:37 31° NE 02:59:28 10° NNE visible
30 Aug 5.2 04:33:49 19° WNW 04:33:49 19° WNW 04:36:34 10° NNW visible
31 Aug 4.8 03:14:35 40° NNE 03:14:35 40° NNE 03:17:28 10° NNE visible
31 Aug 5.8 04:51:47 10° WNW 04:51:47 10° WNW 04:52:17 10° NW visible
01 Sep 4.8 03:32:32 34° NNW 03:32:32 34° NNW 03:35:12 10° N visible
02 Sep 6.3 02:13:17 15° NE 02:13:17 15° NE 02:14:27 10° NE visible
02 Sep 5.2 03:50:29 23° NW 03:50:29 23° NW 03:52:39 10° NNW visible
03 Sep 6.0 02:31:12 20° NNE 02:31:12 20° NNE 02:32:46 10° NNE visible
03 Sep 5.7 04:08:23 14° NW 04:08:23 14° NW 04:09:40 10° NNW visible
04 Sep 5.8 02:49:06 22° N 02:49:06 22° N 02:50:43 10° N visible
05 Sep 5.8 03:06:59 20° N 03:06:59 20° N 03:08:26 10° N visible
06 Sep 6.7 01:47:39 11° NE 01:47:39 11° NE 01:47:50 10° NE visible
06 Sep 6.0 03:24:50 15° NNW 03:24:50 15° NNW 03:25:50 10° NNW visible
07 Sep 6.6 02:05:30 13° NNE 02:05:30 13° NNE 02:06:04 10° NNE visible
07 Sep 6.2 03:42:42 10° NNW 03:42:42 10° NNW 03:42:45 10° NNW visible
08 Sep 6.4 02:23:21 14° N 02:23:21 14° N 02:23:59 10° N visible
